STARLINK-11627, 63107

Orbit data source: Space-Track

STARLINK-11627, 63107 is a payload satellite owned by SpaceX/Seattle (US) in LEO that was launched on Thu, 27 Feb 2025 UTC via an FALCON 9 launch vehicle from the Air Force Eastern Test Range (AFETR). Payload-class satellites include a variety of spacecraft equipped with specific instruments for various scientific and technological missions. These include communications satellites like Starlink; space stations such as the ISS; scientific satellites like the Hubble; Earth observation satellites from companies like Planet Labs, Umbra, and HawkEye 360; GPS; miniature CubeSats for education and research; and military/defense satellites.

Loading next visibility...
Identifier
63107, 2025-039D
Orbit
LEO
Country
Flag of USUS
Related business
Manufacturer
SpaceX/Seattle
Mission
Operational Commercial Communications
Bus & Motor
STARLINK V2MD, Unknown motor
Mass
960 kg wet, ~910 kg dry
Launch date (UTC)
2025-02-27 (2 years ago)
Launch vehicle
FALCON 9
Launch site
Air Force Eastern Test Range (AFETR)
Object type
Payload
Rocket body
Debris
Shape & HBR
Box + 2 Pan, 18.1 m
Radar Cross Section
36.964 m², Large (>1 m²)

Expand to show TLE details & history
Last TLE update: 17 hours ago

TLE from 17 hours ago
0 STARLINK-11627
1 63107U 25039D   26253.33335647  .00088319  00000-0  68604-3 0  9994
2 63107  43.0010 203.7874 0001422 274.6688 174.0260 15.70785972  5947
Epoch: 2026-09-10T08:00Z
TLE epoch observation values (Epoch: 2026-09-10T08:00:01.999Z)
Latitude
43.14803°
Longitude
-177.37756°
Altitude
360.719 km
Speed
7.698 km/s
True Right ascension
19h 28m 00s
True Declination
42° 57' 59"
Sunlit
Object was in full shadow at epoch
Visualization orbit readout
Latitude
Unknown
Longitude
Unknown
Altitude
Unknown
Speed
Unknown
Apparent Right ascension
Unknown
Apparent Declination
Unknown
Sunlit
N/A
Visualization observer readout
Local Sidereal Time
17:45:36
Azimuth
Unknown
Elevation
Unknown
Doppler factor
Unknown
Orbital elements
Apogee altitude
359.589 km
Perigee altitude
357.673 km
Semi-major axis
6,736.768 km
Eccentricity
0.00014
Inclination
43.001°
RAAN
203.7874°
Arg. of periapsis
274.6688°
True anomaly
174.0277°
Mean anomaly
174.026°
Eccentric anomaly
174.02685°
Mean motion
3.92524 °/min
Orbital period
91.71 mins
BSTAR
0.00068604
Loading maneuver chart data...
Computing Atmospheric mass density...
Loading historical data...
Loading historical data...
Loading historical data...
Loading historical data...
Loading historical data...
Loading historical data...
Loading historical data...

Documentation

Showing up to 5 results
|